EW3043 Weather Reports


Display with metric or nautical units.
time (UTC)temp
F
wind
direction
speed
MPH
gust
MPH
rain 1hr
in
rain 24hr
in
rain mn
in
humidity
%
barometer
mb
20260901065206 52 252 0.0 0.0 0.00 0.00 0.00 54 1022.8
20260901064700 53 252 0.0 1.0 0.00 0.00 0.00 55 1022.8
20260901064159 52 252 0.0 1.0 0.00 0.00 0.00 55 1022.7
20260901063657 52 252 0.0 1.0 0.00 0.00 0.00 56 1022.7
20260901063154 52 252 0.0 1.0 0.00 0.00 0.00 56 1022.7
20260901062712 52 252 0.0 1.0 0.00 0.00 0.00 58 1022.7
20260901062209 52 252 0.0 1.0 0.00 0.00 0.00 58 1022.7
20260901061707 53 252 0.0 1.0 0.00 0.00 0.00 56 1022.8
20260901061209 53 252 0.0 1.0 0.00 0.00 0.00 55 1022.8
20260901060703 53 252 0.0 1.0 0.00 0.00 0.00 55 1022.8
20260901060201 54 252 0.0 1.0 0.00 0.00 0.00 53 1022.7
20260901055701 54 252 0.0 1.0 0.00 0.00 0.00 52 1022.8
20260901055158 55 252 1.0 1.0 0.00 0.00 0.00 53 1022.8
20260901054716 56 256 0.0 2.0 0.00 0.00 0.00 53 1022.8
20260901054213 57 257 1.0 2.0 0.00 0.00 0.00 45 1022.9
20260901053711 57 259 0.0 1.0 0.00 0.00 0.00 41 1022.9
20260901053208 58 259 0.0 1.0 0.00 0.00 0.00 41 1022.9
20260901052726 58 259 0.0 2.0 0.00 0.00 0.00 40 1023.0
20260901052223 57 248 0.0 3.0 0.00 0.00 0.00 41 1023.0
20260901051717 57 254 0.0 3.0 0.00 0.00 0.00 41 1023.0
20260901051212 57 253 0.0 2.0 0.00 0.00 0.00 42 1023.0
20260901050710 58 250 0.0 2.0 0.00 0.00 0.00 41 1023.0
20260901050208 59 254 0.0 2.0 0.00 0.00 0.00 38 1023.0
20260901045708 58 263 0.0 2.0 0.00 0.00 0.00 38 1023.0
20260901045204 58 258 1.0 2.0 0.00 0.00 0.00 38 1023.1
20260901044702 57 259 0.0 3.0 0.00 0.00 0.00 40 1023.1
20260901044221 57 255 0.0 3.0 0.00 0.00 0.00 43 1023.1
20260901043719 56 250 0.0 3.0 0.00 0.00 0.00 44 1023.1
20260901043155 55 252 0.0 2.0 0.00 0.00 0.00 51 1023.0
20260901042657 54 258 1.0 2.0 0.00 0.00 0.00 52 1023.1
20260901042229 54 259 0.0 1.0 0.00 0.00 0.00 52 1023.1
20260901041710 53 260 0.0 1.0 0.00 0.00 0.00 60 1023.1
20260901041206 52 248 0.0 1.0 0.00 0.00 0.00 67 1023.2
20260901040705 52 248 0.0 1.0 0.00 0.00 0.00 72 1023.1
20260901040223 52 248 0.0 1.0 0.00 0.00 0.00 72 1023.0
20260901035657 52 248 0.0 1.0 0.00 0.00 0.00 72 1023.0
20260901035154 52 247 0.0 1.0 0.00 0.00 0.00 75 1022.9
20260901034712 52 208 0.0 1.0 0.00 0.00 0.00 75 1022.8
20260901034231 52 208 0.0 1.0 0.00 0.00 0.00 75 1022.8
20260901033708 52 208 0.0 1.0 0.00 0.00 0.00 75 1022.7
20260901033206 52 208 0.0 0.0 0.00 0.00 0.00 74 1022.6
20260901032704 52 208 0.0 0.0 0.00 0.00 0.00 75 1022.6
20260901032222 52 208 0.0 0.0 0.00 0.00 0.00 74 1022.5
20260901031658 52 134 0.0 0.0 0.00 0.00 0.00 74 1022.4
20260901031215 53 134 0.0 0.0 0.00 0.00 0.00 74 1022.3
20260901030710 53 134 0.0 0.0 0.00 0.00 0.00 73 1022.2
20260901030208 53 134 0.0 0.0 0.00 0.00 0.00 72 1022.2
20260901025707 54 134 0.0 0.0 0.00 0.00 0.00 72 1022.0
20260901025204 54 134 0.0 1.0 0.00 0.00 0.00 71 1022.0
20260901024706 54 123 0.0 1.0 0.00 0.00 0.00 70 1021.9
20260901024204 55 123 0.0 1.0 0.00 0.00 0.00 70 1021.9
20260901023701 55 128 0.0 1.0 0.00 0.00 0.00 69 1021.9
20260901023200 55 52 0.0 1.0 0.00 0.00 0.00 69 1021.9
20260901022657 56 37 0.0 1.0 0.00 0.00 0.00 68 1021.8
20260901022214 56 37 0.0 1.0 0.00 0.00 0.00 67 1021.7
20260901021712 57 9 0.0 0.0 0.00 0.00 0.00 66 1021.7
20260901021210 57 9 0.0 1.0 0.00 0.00 0.00 65 1021.7
20260901020708 58 9 0.0 2.0 0.00 0.00 0.00 63 1021.6
20260901020206 59 6 0.0 2.0 0.00 0.00 0.00 62 1021.6
20260901015704 59 78 0.0 1.0 0.00 0.00 0.00 61 1021.6
20260901015202 60 355 0.0 1.0 0.00 0.00 0.00 60 1021.6
20260901014659 60 296 0.0 3.0 0.00 0.00 0.00 59 1021.6
20260901014155 60 231 1.0 3.0 0.00 0.00 0.00 58 1021.7
20260901013656 61 297 0.0 2.0 0.00 0.00 0.00 57 1021.7
20260901013231 61 68 0.0 2.0 0.00 0.00 0.00 56 1021.7
20260901012711 61 85 0.0 2.0 0.00 0.00 0.00 56 1021.7
20260901012210 62 30 0.0 2.0 0.00 0.00 0.00 54 1021.7
20260901011708 62 9 0.0 1.0 0.00 0.00 0.00 54 1021.7
20260901011226 63 203 0.0 2.0 0.00 0.00 0.00 53 1021.8
20260901010723 63 49 0.0 3.0 0.00 0.00 0.00 52 1021.7
20260901010200 63 210 1.0 3.0 0.00 0.00 0.00 51 1021.7
20260901005658 64 172 1.0 8.0 0.00 0.00 0.00 51 1021.8
20260901005216 64 358 0.0 8.0 0.00 0.00 0.00 51 1021.8
20260901004713 65 68 1.0 6.0 0.00 0.00 0.00 50 1022.0
20260901004233 65 260 1.0 3.0 0.00 0.00 0.00 49 1022.0
20260901003704 65 192 0.0 3.0 0.00 0.00 0.00 50 1022.0
20260901003202 66 290 1.0 3.0 0.00 0.00 0.00 49 1021.9
20260901002719 66 252 1.0 3.0 0.00 0.00 0.00 47 1021.9
20260901002234 67 53 0.0 3.0 0.00 0.00 0.00 46 1021.9
20260901001711 67 249 1.0 4.0 0.00 0.00 0.00 45 1022.0
20260901001209 67 176 1.0 4.0 0.00 0.00 0.00 42 1021.9
20260901000705 68 255 1.0 3.0 0.00 0.00 0.00 43 1022.0
20260901000204 68 173 0.0 3.0 0.00 0.00 0.00 41 1022.1
20260831235722 68 220 1.0 4.0 0.00 0.00 0.00 41 1022.1
20260831235158 68 242 1.0 4.0 0.00 0.00 0.00 38 1022.0
20260831234737 69 212 1.0 3.0 0.00 0.00 0.00 37 1022.1
20260831234214 69 54 1.0 4.0 0.00 0.00 0.00 36 1022.1
20260831233732 69 224 1.0 4.0 0.00 0.00 0.00 36 1022.1
20260831233229 69 141 1.0 4.0 0.00 0.00 0.00 35 1022.0
20260831232705 69 308 0.0 2.0 0.00 0.00 0.00 36 1022.0
20260831232207 69 83 0.0 3.0 0.00 0.00 0.00 35 1022.0
20260831231704 69 65 1.0 4.0 0.00 0.00 0.00 34 1022.1
20260831231222 69 41 1.0 4.0 0.00 0.00 0.00 34 1022.2
20260831230700 70 286 1.0 4.0 0.00 0.00 0.00 35 1022.4
20260831230158 70 319 1.0 3.0 0.00 0.00 0.00 33 1022.4
20260831225717 70 274 0.0 2.0 0.00 0.00 0.00 34 1022.4
20260831225234 70 267 0.0 3.0 0.00 0.00 0.00 34 1022.4
20260831224711 70 41 1.0 3.0 0.00 0.00 0.00 32 1022.5
20260831224209 71 237 1.0 3.0 0.00 0.00 0.00 34 1022.6
20260831223707 71 288 0.0 3.0 0.00 0.00 0.00 34 1022.5
20260831223224 71 140 1.0 4.0 0.00 0.00 0.00 34 1022.5
20260831222703 71 26 2.0 4.0 0.00 0.00 0.00 33 1022.6
20260831222158 71 272 1.0 4.0 0.00 0.00 0.00 34 1022.8
20260831221716 71 278 1.0 4.0 0.00 0.00 0.00 31 1022.8
20260831221214 72 24 1.0 4.0 0.00 0.00 0.00 31 1022.8
20260831220712 72 189 1.0 2.0 0.00 0.00 0.00 31 1022.8
20260831220210 73 264 1.0 3.0 0.00 0.00 0.00 30 1022.9
20260831215710 73 54 1.0 3.0 0.00 0.00 0.00 27 1023.0
20260831215212 73 276 0.0 4.0 0.00 0.00 0.00 29 1023.0
20260831214709 73 42 1.0 4.0 0.00 0.00 0.00 31 1023.1
20260831214229 74 58 1.0 3.0 0.00 0.00 0.00 27 1023.1
20260831213705 74 127 1.0 3.0 0.00 0.00 0.00 27 1023.1
20260831213223 74 298 1.0 3.0 0.00 0.00 0.00 26 1023.1
20260831212700 75 265 1.0 5.0 0.00 0.00 0.00 26 1023.2
20260831212158 75 76 2.0 5.0 0.00 0.00 0.00 23 1023.2
20260831211715 75 335 1.0 4.0 0.00 0.00 0.00 23 1023.3
20260831211212 75 295 1.0 4.0 0.00 0.00 0.00 25 1023.3
20260831210711 75 113 1.0 4.0 0.00 0.00 0.00 26 1023.4
20260831210208 75 258 1.0 5.0 0.00 0.00 0.00 22 1023.5
20260831205707 76 47 1.0 3.0 0.00 0.00 0.00 24 1023.4
20260831205204 76 316 1.0 3.0 0.00 0.00 0.00 27 1023.6
20260831204723 75 91 1.0 4.0 0.00 0.00 0.00 25 1023.4
20260831204215 75 297 1.0 4.0 0.00 0.00 0.00 24 1023.5
20260831203731 76 295 1.0 3.0 0.00 0.00 0.00 22 1023.5
20260831203228 76 281 1.0 3.0 0.00 0.00 0.00 24 1023.5
20260831202704 75 359 1.0 4.0 0.00 0.00 0.00 25 1023.5
20260831202202 76 285 1.0 4.0 0.00 0.00 0.00 27 1023.5
20260831201700 76 125 1.0 3.0 0.00 0.00 0.00 28 1023.4
20260831201201 76 104 1.0 5.0 0.00 0.00 0.00 27 1023.5
20260831200659 76 304 2.0 5.0 0.00 0.00 0.00 24 1023.5
20260831200237 76 265 1.0 3.0 0.00 0.00 0.00 27 1023.6
20260831195716 76 114 1.0 5.0 0.00 0.00 0.00 26 1023.6
20260831195214 76 268 1.0 5.0 0.00 0.00 0.00 27 1023.5
20260831194712 78 275 1.0 2.0 0.00 0.00 0.00 24 1023.5
20260831194210 76 68 1.0 4.0 0.00 0.00 0.00 26 1023.6
20260831193728 76 165 1.0 4.0 0.00 0.00 0.00 27 1023.6
20260831193204 76 247 1.0 4.0 0.00 0.00 0.00 23 1023.6
20260831192702 76 283 1.0 4.0 0.00 0.00 0.00 24 1023.6
20260831192200 76 262 1.0 3.0 0.00 0.00 0.00 27 1023.7
20260831191717 76 269 0.0 5.0 0.00 0.00 0.00 27 1023.7
20260831191215 76 266 2.0 5.0 0.00 0.00 0.00 28 1023.8
20260831190732 76 255 0.0 3.0 0.00 0.00 0.00 30 1023.8
20260831190209 76 235 1.0 3.0 0.00 0.00 0.00 29 1023.8
20260831185708 75 122 0.0 4.0 0.00 0.00 0.00 30 1023.8
20260831185205 75 259 1.0 4.0 0.00 0.00 0.00 29 1023.8
20260831184703 76 249 0.0 3.0 0.00 0.00 0.00 31 1023.8
20260831184236 76 340 0.0 3.0 0.00 0.00 0.00 32 1023.9
20260831183713 76 260 1.0 3.0 0.00 0.00 0.00 31 1023.9
20260831183215 76 341 1.0 2.0 0.00 0.00 0.00 32 1023.9
20260831182718 75 242 1.0 3.0 0.00 0.00 0.00 34 1023.8
20260831182216 75 256 1.0 3.0 0.00 0.00 0.00 33 1023.8
20260831181714 75 236 1.0 4.0 0.00 0.00 0.00 34 1023.8
20260831181211 75 106 1.0 4.0 0.00 0.00 0.00 34 1023.7
20260831180709 75 53 1.0 3.0 0.00 0.00 0.00 34 1023.7
20260831180208 74 129 1.0 3.0 0.00 0.00 0.00 34 1023.6
20260831175706 74 259 1.0 3.0 0.00 0.00 0.00 34 1023.6
20260831175203 74 297 1.0 3.0 0.00 0.00 0.00 32 1023.6
20260831174701 74 141 0.0 3.0 0.00 0.00 0.00 33 1023.6
20260831174159 74 230 1.0 2.0 0.00 0.00 0.00 34 1023.6
20260831173717 74 49 1.0 3.0 0.00 0.00 0.00 33 1023.7
20260831173216 74 105 1.0 3.0 0.00 0.00 0.00 34 1023.6
20260831172714 73 274 0.0 3.0 0.00 0.00 0.00 34 1023.6
20260831172216 73 154 0.0 3.0 0.00 0.00 0.00 34 1023.6
20260831171713 73 299 1.0 2.0 0.00 0.00 0.00 36 1023.5
20260831171211 73 255 0.0 3.0 0.00 0.00 0.00 36 1023.4
20260831170709 72 21 0.0 3.0 0.00 0.00 0.00 38 1023.4
20260831170207 72 46 0.0 3.0 0.00 0.00 0.00 38 1023.3
20260831165700 71 37 0.0 2.0 0.00 0.00 0.00 40 1023.3
20260831165218 70 250 0.0 2.0 0.00 0.00 0.00 41 1023.3
20260831164715 69 276 0.0 3.0 0.00 0.00 0.00 42 1023.3
20260831164213 69 271 1.0 3.0 0.00 0.00 0.00 44 1023.3
20260831163711 69 226 0.0 4.0 0.00 0.00 0.00 44 1023.2
20260831163208 68 311 0.0 4.0 0.00 0.00 0.00 46 1023.1
20260831162706 68 271 1.0 3.0 0.00 0.00 0.00 48 1023.2
20260831162204 67 283 1.0 6.0 0.00 0.00 0.00 48 1023.1
20260831161702 67 233 1.0 6.0 0.00 0.00 0.00 47 1023.1
20260831161204 67 257 1.0 3.0 0.00 0.00 0.00 48 1023.0
20260831160702 66 314 0.0 4.0 0.00 0.00 0.00 51 1023.0
20260831160200 66 255 1.0 4.0 0.00 0.00 0.00 51 1023.0
20260831155739 65 92 0.0 5.0 0.00 0.00 0.00 52 1023.0
20260831155216 65 252 1.0 5.0 0.00 0.00 0.00 52 1023.0
20260831154713 65 249 1.0 5.0 0.00 0.00 0.00 52 1022.9
20260831154231 65 158 1.0 2.0 0.00 0.00 0.00 52 1023.0
20260831153707 65 264 1.0 2.0 0.00 0.00 0.00 52 1022.9
20260831153204 64 244 0.0 2.0 0.00 0.00 0.00 52 1022.9
20260831152722 64 325 1.0 2.0 0.00 0.00 0.00 51 1022.9
20260831152214 64 283 0.0 1.0 0.00 0.00 0.00 50 1022.8
20260831151713 63 49 0.0 2.0 0.00 0.00 0.00 51 1022.8
20260831151211 62 48 1.0 2.0 0.00 0.00 0.00 51 1022.8
20260831150729 62 354 0.0 2.0 0.00 0.00 0.00 52 1022.8
20260831150205 61 36 1.0 2.0 0.00 0.00 0.00 53 1022.8
20260831145704 60 47 1.0 2.0 0.00 0.00 0.00 53 1022.8
20260831145201 59 240 0.0 1.0 0.00 0.00 0.00 54 1022.8
20260831144719 58 240 0.0 1.0 0.00 0.00 0.00 55 1022.8
20260831144239 58 240 0.0 0.0 0.00 0.00 0.00 56 1022.8
20260831143714 57 240 0.0 0.0 0.00 0.00 0.00 57 1022.7
20260831143211 56 240 0.0 0.0 0.00 0.00 0.00 58 1022.7
20260831142712 56 240 0.0 1.0 0.00 0.00 0.00 58 1022.6
20260831142211 55 240 0.0 1.0 0.00 0.00 0.00 59 1022.6
20260831141708 54 240 0.0 0.0 0.00 0.00 0.00 60 1022.6
20260831141207 54 240 0.0 0.0 0.00 0.00 0.00 60 1022.5
20260831140702 53 240 0.0 1.0 0.00 0.00 0.00 61 1022.4
20260831140200 53 240 0.0 1.0 0.00 0.00 0.00 61 1022.3
20260831135719 53 240 0.0 1.0 0.00 0.00 0.00 61 1022.2
20260831135217 53 235 0.0 1.0 0.00 0.00 0.00 61 1022.1
20260831134715 52 235 0.0 1.0 0.00 0.00 0.00 62 1022.0
20260831134213 52 235 0.0 1.0 0.00 0.00 0.00 61 1021.9
20260831133711 52 235 0.0 1.0 0.00 0.00 0.00 62 1021.8
20260831133209 52 235 0.0 1.0 0.00 0.00 0.00 61 1021.8
20260831132706 52 235 0.0 1.0 0.00 0.00 0.00 61 1021.7
20260831132225 52 235 0.0 1.0 0.00 0.00 0.00 61 1021.6
20260831131742 52 235 0.0 1.0 0.00 0.00 0.00 61 1021.6
20260831131218 52 245 0.0 1.0 0.00 0.00 0.00 60 1021.6
20260831130711 52 246 0.0 1.0 0.00 0.00 0.00 61 1021.5
20260831130213 53 246 0.0 1.0 0.00 0.00 0.00 60 1021.5
20260831125711 53 257 0.0 1.0 0.00 0.00 0.00 59 1021.4
20260831125208 53 257 0.0 1.0 0.00 0.00 0.00 59 1021.4
20260831124706 53 259 0.0 1.0 0.00 0.00 0.00 59 1021.4
20260831124204 54 259 0.0 2.0 0.00 0.00 0.00 59 1021.4
20260831123720 53 244 0.0 2.0 0.00 0.00 0.00 59 1021.4
20260831123218 54 245 0.0 1.0 0.00 0.00 0.00 59 1021.4
20260831122716 53 252 0.0 1.0 0.00 0.00 0.00 59 1021.4
20260831122212 53 252 0.0 1.0 0.00 0.00 0.00 59 1021.4
20260831121710 54 248 0.0 1.0 0.00 0.00 0.00 58 1021.4
20260831121207 54 250 0.0 1.0 0.00 0.00 0.00 58 1021.4
20260831120705 54 234 0.0 2.0 0.00 0.00 0.00 57 1021.4
20260831120203 54 234 0.0 2.0 0.00 0.00 0.00 57 1021.4
20260831115704 54 252 0.0 2.0 0.00 0.00 0.00 58 1021.3
20260831115206 53 153 0.0 1.0 0.00 0.00 0.00 58 1021.3
20260831114723 53 255 0.0 1.0 0.00 0.00 0.00 59 1021.3
20260831114220 53 231 0.0 1.0 0.00 0.00 0.00 59 1021.4
20260831113718 53 208 0.0 1.0 0.00 0.00 0.00 59 1021.4
20260831113216 53 242 0.0 1.0 0.00 0.00 0.00 59 1021.4
20260831112714 53 243 0.0 1.0 0.00 0.00 0.00 59 1021.4
20260831112232 53 243 0.0 1.0 0.00 0.00 0.00 59 1021.4
20260831111729 53 243 0.0 1.0 0.00 0.00 0.00 59 1021.4
20260831111204 53 251 0.0 0.0 0.00 0.00 0.00 59 1021.5
20260831110702 53 226 0.0 1.0 0.00 0.00 0.00 59 1021.6
20260831110220 53 226 0.0 1.0 0.00 0.00 0.00 60 1021.6
20260831105719 53 255 0.0 1.0 0.00 0.00 0.00 60 1021.5
20260831105217 52 255 0.0 0.0 0.00 0.00 0.00 61 1021.5
20260831104714 52 255 0.0 0.0 0.00 0.00 0.00 61 1021.6
20260831104211 52 255 0.0 0.0 0.00 0.00 0.00 61 1021.6
20260831103729 52 255 0.0 1.0 0.00 0.00 0.00 61 1021.5
20260831103206 52 255 0.0 1.0 0.00 0.00 0.00 61 1021.6
20260831102703 52 255 0.0 1.0 0.00 0.00 0.00 60 1021.6
20260831102221 52 255 0.0 0.0 0.00 0.00 0.00 59 1021.6
20260831101703 52 255 0.0 0.0 0.00 0.00 0.00 59 1021.7
20260831101216 52 255 0.0 0.0 0.00 0.00 0.00 59 1021.8
20260831100714 52 255 0.0 0.0 0.00 0.00 0.00 59 1021.8
20260831100232 52 255 0.0 1.0 0.00 0.00 0.00 59 1021.9
20260831095710 52 255 0.0 1.0 0.00 0.00 0.00 59 1021.9
20260831095208 52 255 0.0 0.0 0.00 0.00 0.00 59 1021.8
20260831094716 52 255 0.0 1.0 0.00 0.00 0.00 58 1021.8
20260831094235 53 255 0.0 1.0 0.00 0.00 0.00 58 1021.8
20260831093713 53 255 0.0 1.0 0.00 0.00 0.00 58 1021.8
20260831093210 53 255 0.0 1.0 0.00 0.00 0.00 57 1021.8
20260831092709 53 255 0.0 1.0 0.00 0.00 0.00 58 1021.7
20260831092206 53 255 0.0 1.0 0.00 0.00 0.00 58 1021.7
20260831091724 53 255 0.0 1.0 0.00 0.00 0.00 58 1021.6
20260831091236 53 255 0.0 1.0 0.00 0.00 0.00 59 1021.7
20260831090713 54 256 0.0 1.0 0.00 0.00 0.00 58 1021.7
20260831090211 54 256 0.0 0.0 0.00 0.00 0.00 58 1021.7
20260831085709 54 256 0.0 1.0 0.00 0.00 0.00 58 1021.7
20260831085206 54 256 0.0 1.0 0.00 0.00 0.00 58 1021.7
20260831084704 54 257 0.0 1.0 0.00 0.00 0.00 58 1021.8
20260831084243 54 257 0.0 1.0 0.00 0.00 0.00 58 1021.8
20260831083720 54 245 0.0 1.0 0.00 0.00 0.00 58 1021.9
20260831083218 54 245 0.0 1.0 0.00 0.00 0.00 58 1021.9
20260831082720 54 247 0.0 1.0 0.00 0.00 0.00 58 1021.8
20260831082218 54 247 0.0 2.0 0.00 0.00 0.00 58 1021.9
20260831081716 55 247 0.0 2.0 0.00 0.00 0.00 57 1021.9
20260831081214 54 250 0.0 1.0 0.00 0.00 0.00 57 1021.9
20260831080709 54 250 0.0 1.0 0.00 0.00 0.00 59 1021.9
20260831080209 54 250 0.0 1.0 0.00 0.00 0.00 60 1022.0
20260831075708 54 251 0.0 1.0 0.00 0.00 0.00 60 1022.0
20260831075226 54 250 0.0 1.0 0.00 0.00 0.00 60 1022.1
20260831074722 53 250 0.0 1.0 0.00 0.00 0.00 61 1022.0
20260831074240 53 250 0.0 1.0 0.00 0.00 0.00 61 1022.1
20260831073717 53 233 0.0 0.0 0.00 0.00 0.00 60 1022.1
20260831073213 53 233 0.0 0.0 0.00 0.00 0.00 61 1022.1
20260831072732 53 233 0.0 1.0 0.00 0.00 0.00 61 1022.1
20260831072209 53 233 0.0 1.0 0.00 0.00 0.00 61 1022.1
20260831071726 53 233 0.0 1.0 0.00 0.00 0.00 59 1022.1
20260831071203 54 233 0.0 1.0 0.00 0.00 0.00 59 1022.2
20260831070721 54 236 0.0 1.0 0.00 0.00 0.00 58 1022.2
20260831070239 54 236 0.0 1.0 0.00 0.00 0.00 59 1022.2
20260831065718 53 213 0.0 1.0 0.00 0.00 0.00 58 1022.3